BFT035 EDDM-BIKF

Flight info

Callsign BFT035
Flight time N/A
Altitude 40000
Route INPUD3Q INPUD Y102 UPALA M726 LASGA DCT KUMER DCT REXMI DCT KARLI DCT ALOTI DCT NALAN/M085F400 DCT 62N010W DCT ALDAN DCT ASRUN ASRUN2H
Aircraft A35K/H-SDE2E3GHIJ1J3J4J5LM1ORWXY/LB1D1

Departure

Time 2026-04-30 20:08
Airport Munich Airport (EDDM)

Arrival

Time N/A
Airport Keflavik International Airport (BIKF)
Time Latitude Longitude Altitude Speed Heading
2026-04-30 19:13 48.35531 11.79720 1491 ft 0 kts 83°
2026-04-30 19:56 48.35531 11.79718 1491 ft 2 kts 83°
2026-04-30 19:57 48.35528 11.79680 1476 ft 4 kts 83°
2026-04-30 19:57 48.35525 11.79645 1480 ft 1 kts 83°
2026-04-30 19:57 48.35520 11.79609 1491 ft 4 kts 62°
2026-04-30 19:57 48.35505 11.79584 1491 ft 4 kts
2026-04-30 19:58 48.35480 11.79585 1491 ft 4 kts 353°
2026-04-30 19:58 48.35460 11.79589 1477 ft 0 kts 353°
2026-04-30 20:01 48.35488 11.79541 1476 ft 9 kts 295°
2026-04-30 20:01 48.35538 11.79448 1481 ft 14 kts 333°
2026-04-30 20:01 48.35652 11.79419 1484 ft 19 kts 354°
2026-04-30 20:02 48.35938 11.79348 1477 ft 20 kts 345°
2026-04-30 20:02 48.36062 11.79315 1483 ft 14 kts 334°
2026-04-30 20:03 48.36071 11.79033 1487 ft 17 kts 264°
2026-04-30 20:03 48.36056 11.78829 1483 ft 20 kts 264°
2026-04-30 20:03 48.36039 11.78616 1484 ft 21 kts 263°
2026-04-30 20:03 48.36023 11.78404 1491 ft 19 kts 263°
2026-04-30 20:04 48.36006 11.78188 1475 ft 21 kts 263°
2026-04-30 20:04 48.35989 11.77967 1483 ft 22 kts 263°
2026-04-30 20:04 48.35973 11.77756 1491 ft 20 kts 263°
2026-04-30 20:05 48.35939 11.77313 1488 ft 20 kts 263°
2026-04-30 20:05 48.35922 11.77103 1485 ft 19 kts 263°
2026-04-30 20:05 48.35920 11.76725 1479 ft 18 kts 302°
2026-04-30 20:06 48.36034 11.76653 1491 ft 18 kts 353°
2026-04-30 20:06 48.36129 11.76660 1486 ft 6 kts 21°
2026-04-30 20:06 48.36133 11.76662 1491 ft 2 kts 23°
2026-04-30 20:06 48.36179 11.76708 1478 ft 14 kts 39°
2026-04-30 20:07 48.36267 11.76848 1475 ft 23 kts 62°
2026-04-30 20:07 48.36288 11.76940 1491 ft 0 kts 81°
2026-04-30 20:07 48.36404 11.78442 1483 ft 140 kts 83°
2026-04-30 20:08 48.36526 11.80090 1891 ft 160 kts 84°
2026-04-30 20:08 48.36615 11.81733 2684 ft 159 kts 85°
2026-04-30 20:08 48.36705 11.83495 3109 ft 180 kts 85°
2026-04-30 20:08 48.36843 11.85455 3540 ft 196 kts 79°
2026-04-30 20:09 48.37380 11.87408 3960 ft 212 kts 55°
2026-04-30 20:09 48.38613 11.88740 4363 ft 232 kts 19°
2026-04-30 20:09 48.41785 11.87375 5545 ft 263 kts 320°
2026-04-30 20:10 48.44209 11.83037 7015 ft 277 kts 307°
2026-04-30 20:10 48.45358 11.80680 7799 ft 282 kts 308°
2026-04-30 20:10 48.46567 11.78350 8697 ft 282 kts 310°
2026-04-30 20:11 48.49131 11.73845 10294 ft 290 kts 311°
2026-04-30 20:11 48.50470 11.71476 11124 ft 294 kts 311°
2026-04-30 20:11 48.51783 11.69107 12008 ft 295 kts 311°
2026-04-30 20:12 48.54441 11.64339 13651 ft 300 kts 312°
2026-04-30 20:12 48.55787 11.61954 14394 ft 303 kts 313°
2026-04-30 20:12 48.57362 11.59778 15111 ft 305 kts 329°
2026-04-30 20:13 48.59268 11.58344 15545 ft 318 kts 340°
2026-04-30 20:13 48.61389 11.57124 15886 ft 335 kts 342°
2026-04-30 20:13 48.63631 11.55872 16217 ft 351 kts 341°
2026-04-30 20:13 48.65965 11.54549 16523 ft 366 kts 341°
2026-04-30 20:14 48.67597 11.53616 16729 ft 375 kts 341°
2026-04-30 20:14 48.70882 11.51729 17359 ft 386 kts 341°
2026-04-30 20:14 48.73402 11.50270 17972 ft 390 kts 341°
2026-04-30 20:14 48.75978 11.48772 18629 ft 393 kts 341°
2026-04-30 20:15 48.78508 11.47299 19276 ft 397 kts 341°
2026-04-30 20:15 48.81096 11.45793 19928 ft 400 kts 341°
2026-04-30 20:15 48.83708 11.44273 20579 ft 403 kts 341°
2026-04-30 20:15 48.86339 11.42740 21204 ft 407 kts 341°
2026-04-30 20:16 48.88989 11.41195 21829 ft 410 kts 341°
2026-04-30 20:16 48.91669 11.39631 22431 ft 414 kts 341°
2026-04-30 20:16 48.94371 11.38051 23041 ft 418 kts 341°
2026-04-30 20:16 48.97096 11.36455 23645 ft 421 kts 341°
2026-04-30 20:17 48.99840 11.34846 24267 ft 425 kts 341°
2026-04-30 20:17 49.02609 11.33223 24826 ft 428 kts 342°
2026-04-30 20:17 49.05400 11.31585 25372 ft 431 kts 342°
2026-04-30 20:17 49.08207 11.29934 25896 ft 434 kts 342°
2026-04-30 20:18 49.11039 11.28266 26434 ft 438 kts 342°
2026-04-30 20:18 49.13889 11.26585 27049 ft 441 kts 342°
2026-04-30 20:18 49.16769 11.24887 27619 ft 445 kts 342°
2026-04-30 20:18 49.19711 11.23383 28180 ft 446 kts 348°
2026-04-30 20:19 49.22749 11.22483 28740 ft 446 kts 356°
2026-04-30 20:19 49.24846 11.22245 29109 ft 446 kts
2026-04-30 20:19 49.28967 11.22090 29785 ft 449 kts
2026-04-30 20:19 49.32108 11.22092 30253 ft 452 kts
2026-04-30 20:20 49.35263 11.22139 30718 ft 455 kts
2026-04-30 20:20 49.38438 11.22198 31142 ft 458 kts
2026-04-30 20:20 49.41631 11.22255 31538 ft 461 kts
2026-04-30 20:20 49.44848 11.22301 31919 ft 463 kts
2026-04-30 20:21 49.48080 11.22337 32288 ft 466 kts
2026-04-30 20:21 49.51319 11.22366 32781 ft 465 kts
2026-04-30 20:21 49.54544 11.22389 33349 ft 462 kts
2026-04-30 20:21 49.56715 11.22405 33696 ft 461 kts
2026-04-30 20:22 49.60952 11.22420 34315 ft 459 kts
2026-04-30 20:22 49.63113 11.22421 34574 ft 459 kts
2026-04-30 20:22 49.66309 11.22421 34955 ft 459 kts
2026-04-30 20:22 49.69506 11.22422 35331 ft 459 kts
2026-04-30 20:23 49.72695 11.22423 35723 ft 459 kts
2026-04-30 20:23 49.75889 11.22426 36075 ft 458 kts
2026-04-30 20:23 49.79078 11.22435 36397 ft 459 kts
2026-04-30 20:23 49.82271 11.22453 36696 ft 459 kts
2026-04-30 20:24 49.85467 11.22473 36999 ft 459 kts
2026-04-30 20:24 49.88644 11.22494 37415 ft 455 kts
2026-04-30 20:24 49.91802 11.22514 37814 ft 453 kts
2026-04-30 20:24 49.94908 11.22535 38114 ft 452 kts
2026-04-30 20:25 50.01200 11.22571 38608 ft 453 kts
2026-04-30 20:25 50.04394 11.22590 38850 ft 453 kts
2026-04-30 20:26 50.10652 11.22624 39319 ft 453 kts
2026-04-30 20:26 50.16963 11.22663 39680 ft 455 kts
2026-04-30 20:26 50.20131 11.22683 39857 ft 456 kts
2026-04-30 20:27 50.26487 11.22723 40164 ft 458 kts
2026-04-30 20:27 50.32872 11.22731 40422 ft 461 kts 359°
2026-04-30 20:28 50.39213 11.21147 40424 ft 464 kts 346°
2026-04-30 20:28 50.45408 11.18284 40422 ft 465 kts 344°
2026-04-30 20:30 50.60832 11.10563 40421 ft 465 kts 344°
2026-04-30 20:31 50.79331 11.01345 40430 ft 465 kts 344°
2026-04-30 20:32 50.94734 10.93612 40431 ft 465 kts 344°
2026-04-30 20:33 51.03970 10.88949 40431 ft 465 kts 344°
2026-04-30 20:34 51.13205 10.84268 40430 ft 465 kts 344°
2026-04-30 20:35 51.22450 10.79561 40431 ft 465 kts 343°
2026-04-30 20:35 51.31684 10.74841 40431 ft 465 kts 343°